Location: Bottenau
(48.5138°N, 8.0462°E)
Time: 04:26:09
(UTC+00:00)

ATLAS 3B R/B - Pass Details

Date: 29 July 2021
Orbit: 1001 x 1194 km, 63.8° (Epoch: 09 September)

Event Time Altitude Azimuth Distance (km) Brightness Sun altitude
Rises 20:41:01 0° 316° (NW) 3,916 7.8 -12.6°
Reaches altitude 10° 20:43:45 10° 311° (NW) 2,983 6.5 -12.9°
Maximum altitude 20:50:25 44° 242° (WSW) 1,529 3.6 -13.7°
Enters shadow 20:56:43 13° 175° (S) 2,887 4.5 -14.3°
